Location: Brachbach
(49.1847°N, 9.7240°E)
Time: 09:58:15
(UTC+00:00)

FENGYUN 3A - Pass Details

Date: 14 August 2024
Orbit: 821 x 834 km, 98.6° (Epoch: 16 September)

Event Time Altitude Azimuth Distance (km) Brightness Sun altitude
Rises 00:14:18 0° 29° (NNE) 3,394 8.1 -25.7°
Reaches altitude 10° 00:17:43 10° 51° (NE) 2,452 6.8 -25.5°
Maximum altitude 00:20:54 16° 87° (E) 2,071 5.9 -25.4°
Enters shadow 00:23:26 12° 117° (ESE) 2,310 5.8 -25.3°
